Location: Schommer Observatory
(40.5200°N, 74.4500°W)
Time: 13:46:02
(UTC-04:00)

ISS - Pass Details

Date: 17 May 2018
Orbit: 402 x 407 km, 51.6° (Epoch: 27 May)

Event Time Altitude Azimuth Distance (km) Brightness Sun altitude
Rises 04:24:48 0° 312° (NW) 2,319 -0.1 -12.7°
Reaches altitude 10° 04:27:15 10° 330° (NNW) 1,458 -0.9 -12.3°
Maximum altitude 04:29:46 20° 21° (NNE) 990 -1.0 -12.0°
Drops below altitude 10° 04:32:18 10° 72° (ENE) 1,455 0.2 -11.6°
Sets 04:34:44 0° 89° (E) 2,313 0.9 -11.2°
